This is the latest recevied weather packets stored in our database for station/object IW2NIA-3. If no packets are shown the sender has not sent any weather packets the latest 10 day(s).
| Time | Temp. | Humidity | Pressure | Rain* | Wind** | Luminosity | Snow |
|---|---|---|---|---|---|---|---|
| 1788599026 | 26.11° C | 68% | 1017.2 hPa | 0 mm | - | - | - |
| 1788598123 | 25.56° C | 70% | 1017.1 hPa | 0 mm | - | - | - |
| 1788597218 | 25° C | 71% | 1017 hPa | 0 mm | - | - | - |
| 1788596323 | 25° C | 71% | 1017 hPa | 0 mm | - | - | - |
| 1788595425 | 24.44° C | 73% | 1016.9 hPa | 0 mm | - | - | - |
| 1788594522 | 24.44° C | 75% | 1016.8 hPa | 0 mm | - | - | - |
| 1788593618 | 23.89° C | 76% | 1016.6 hPa | 0 mm | - | - | - |
| 1788592711 | 23.33° C | 78% | 1016.7 hPa | 0 mm | - | - | - |
| 1788591823 | 22.78° C | 78% | 1016.6 hPa | 0 mm | - | - | - |
| 1788590912 | 22.78° C | 78% | 1016.5 hPa | 0 mm | - | - | - |
| 1788590010 | 22.22° C | 79% | 1016.4 hPa | 0 mm | - | - | - |
| 1788589123 | 21.11° C | 82% | 1016.5 hPa | 0 mm | - | - | - |
| 1788588208 | 20.56° C | 84% | 1016.4 hPa | 0 mm | - | - | - |
| 1788587308 | 20° C | 85% | 1016.4 hPa | 0 mm | - | - | - |
| 1788586422 | 19.44° C | 85% | 1016.3 hPa | 0 mm | - | - | - |
| 1788585517 | 19.44° C | 84% | 1016.1 hPa | 0 mm | - | - | - |
| 1788584608 | 19.44° C | 84% | 1015.9 hPa | 0 mm | - | - | - |
| 1788583712 | 19.44° C | 84% | 1015.7 hPa | 0 mm | - | - | - |
| 1788582809 | 19.44° C | 84% | 1015.5 hPa | 0 mm | - | - | - |
| 1788581907 | 19.44° C | 84% | 1015.6 hPa | 0 mm | - | - | - |
| 1788581004 | 19.44° C | 84% | 1015.6 hPa | 0 mm | - | - | - |
| 1788580118 | 19.44° C | 84% | 1015.5 hPa | 0 mm | - | - | - |
| 1788579213 | 19.44° C | 83% | 1015.7 hPa | 0 mm | - | - | - |
| 1788578311 | 19.44° C | 83% | 1015.9 hPa | 0 mm | - | - | - |
| 1788577409 | 19.44° C | 83% | 1016 hPa | 0 mm | - | - | - |
* Rain latest hour (hover to see other rain measurements)
** Current wind speed in m/s (hover to see current wind gust speed)